Regional Weather Roundup
Issued by NWS

Home | Current Version | Previous Version | Graphics & Text | Print | Product List | Glossary On
Versions: 1 2 3 4 5 6 7 8 9 10 11 12 13 14 15 16 17 18 19 20 21 22 23 24 25 26 27 28 29 30 31 32 33 34 35 36 37 38 39 40 41 42 43 44 45 46 47 48 49 50
000
ASUS45 KBOI 260410
RWRID

IDAHO REGIONAL WEATHER ROUNDUP
NATIONAL WEATHER SERVICE BOISE ID
1000 PM MDT THU AUG 25 2016

NOTE: "FAIR" INDICATES FEW OR NO CLOUDS BELOW 12000 FEET
WITH NO SIGNIFICANT WEATHER AND/OR OBSTRUCTIONS TO VISIBILITY

IDZ012-014-260500-
SOUTHWEST IDAHO


CITY           SKY/WX    TMP DP  RH WIND       PRES   REMARKS
BOISE          CLEAR     72  38  29 NE3       29.98R
CALDWELL       CLEAR     68  44  42 SW3       29.96S
MOUNTAIN HOME  CLEAR     74  35  24 NW13      29.97R
$$

IDZ016-017-260500-
SOUTHCENTRAL IDAHO


CITY           SKY/WX    TMP DP  RH WIND       PRES   REMARKS
BURLEY         CLEAR     61  37  41 W7        30.02R
JEROME         CLEAR     57  41  55 CALM      30.03R
TWIN FALLS     CLEAR     54  35  48 S7        30.03R
$$

IDZ019>023-260500-
SOUTHEAST IDAHO


CITY           SKY/WX    TMP DP  RH WIND       PRES   REMARKS
IDAHO FALLS    CLEAR     57  37  47 CALM      30.06S
POCATELLO      CLEAR     62  30  29 E7        30.04S
REXBURG        CLEAR     62  33  33 NE5       30.08R
$$

IDZ006-010-011-018-031-032-260500-
CENTRAL IDAHO MOUNTAINS


CITY           SKY/WX    TMP DP  RH WIND       PRES   REMARKS
MCCALL         CLEAR     63  34  33 N6        30.11R
HAILEY         PTCLDY    63  36  36 SE5       30.10R
STANLEY          N/A     51  28  41 CALM      30.17R
SALMON         CLEAR     61  34  36 CALM      30.05R
CHALLIS        PTCLDY    62  30  29 NW10      30.08R
$$

IDZ002-004-006-007-026-260500-
NORTHERN IDAHO


CITY           SKY/WX    TMP DP  RH WIND       PRES   REMARKS
LEWISTON       PTCLDY    77  34  21 N6        29.96R
LOWELL           N/A     63  46  54 CALM      30.00R
COEUR D`ALENE  MOCLDY    68  36  30 E6        30.02R
MULLAN PASS    PTCLDY    55  28  35 SE7       30.22R
$$



USA.gov is the U.S. government's official web portal to all federal, state and local government web resources and services.